Weather History for New Bedford, MA

Change the Weather History Date:

Saturday, March 5, 2011

  Actual Average Record
Temperature  
Mean Temperature 45 °F -  
Max Temperature 55 °F 44 °F 59 °F (1977)
Min Temperature 35 °F 30 °F 12 °F (2009)
Degree Days  
Heating Degree Days 20    
Moisture  
Dew Point 38 °F    
Average Humidity 77    
Maximum Humidity 86    
Minimum Humidity 63    
Precipitation  
Precipitation 0.00 in - - ()
Sea Level Pressure  
Sea Level Pressure 30.44 in    
Wind  
Wind Speed 13 mph (SSE)    
Max Wind Speed 21 mph    
Max Gust Speed 30 mph    
Visibility 10 miles    
Events Rain    
Averages and records for this station are not official NWS values.
T = Trace of Precipitation, MM = Missing Value Source: NWS Daily Summary

Daily Weather History Graph

Daily Weather History Graph

Search for Another Location

Airport:

Trip Planner

Search our weather history database for the weather conditions in past years. The results will help you decide how hot, cold, wet, or windy it might be!

Date:

Astronomy

Mar. 05, 2011 Rise Set
Actual Time 6:12 AM EST 5:38 PM EST
Civil Twilight 5:44 AM EST 6:06 PM EST
Nautical Twilight 5:12 AM EST 6:38 PM EST
Astronomical Twilight 4:40 AM EST 7:10 PM EST
Moon 6:07 AM EST (3/5) 6:44 PM EST (3/5)
Length of Visible Light 12h 21m
Length of Day
11h 25m
New Moon, 1% of the Moon is Illuminated
Mar 5
New Moon
Mar 12
First Quarter
Mar 19
Full
Mar 26
Last Quarter
Apr 3
New

Hourly Weather History & Observations

Time (EST) Temp. Windchill Dew Point Humidity Pressure Visibility Wind Dir Wind Speed Gust Speed Precip Events Conditions
12:53 AM 35.1 °F 26.9 °F 30.0 °F 82% 30.60 in 10.0 mi SSE 11.5 mph - N/A   Partly Cloudy
1:53 AM 36.0 °F 29.6 °F 32.0 °F 86% 30.59 in 10.0 mi SSE 8.1 mph - N/A   Mostly Cloudy
2:53 AM 37.0 °F 30.4 °F 32.0 °F 82% 30.57 in 10.0 mi SSE 9.2 mph - N/A   Mostly Cloudy
3:53 AM 39.0 °F 32.8 °F 33.1 °F 79% 30.55 in 10.0 mi SSE 9.2 mph - N/A   Overcast
4:38 AM 39.2 °F 32.5 °F 33.8 °F 81% 30.53 in 10.0 mi SSE 10.4 mph - N/A   Overcast
4:53 AM 39.9 °F 32.5 °F 33.1 °F 77% 30.53 in 10.0 mi SSE 12.7 mph - N/A   Overcast
5:32 AM 41.0 °F 33.5 °F 33.8 °F 76% 30.52 in 10.0 mi SSE 13.8 mph 19.6 mph 0.00 in Rain Light Rain
5:53 AM 41.0 °F 34.7 °F 35.1 °F 79% 30.52 in 10.0 mi SSE 10.4 mph 20.7 mph 0.00 in   Overcast
6:09 AM 41.0 °F 33.9 °F 35.6 °F 81% 30.51 in 10.0 mi SSE 12.7 mph 19.6 mph 0.00 in Rain Light Rain
6:53 AM 41.0 °F 34.3 °F 35.1 °F 79% 30.51 in 10.0 mi SSE 11.5 mph - 0.00 in   Overcast
7:53 AM 42.1 °F 34.9 °F 37.0 °F 82% 30.51 in 10.0 mi SSE 13.8 mph 21.9 mph N/A   Overcast
8:53 AM 45.0 °F 39.7 °F 37.9 °F 76% 30.50 in 10.0 mi South 10.4 mph 20.7 mph N/A   Overcast
9:53 AM 46.4 °F 38.7 °F 39.2 °F 76% 30.48 in 10.0 mi South 20.7 mph 28.8 mph N/A   Overcast
10:53 AM 48.9 °F - 39.9 °F 71% 30.48 in 10.0 mi South 16.1 mph 26.5 mph N/A   Overcast
11:53 AM 48.9 °F - 41.0 °F 74% 30.46 in 10.0 mi South 16.1 mph 26.5 mph N/A   Overcast
12:53 PM 51.1 °F - 42.1 °F 71% 30.43 in 10.0 mi South 12.7 mph 20.7 mph N/A   Overcast
1:53 PM 50.0 °F - 42.1 °F 74% 30.41 in 10.0 mi South 13.8 mph - N/A   Overcast
2:53 PM 55.4 °F - 42.8 °F 63% 30.38 in 10.0 mi South 19.6 mph 29.9 mph N/A   Partly Cloudy
3:53 PM 53.1 °F - 42.1 °F 66% 30.36 in 10.0 mi South 20.7 mph 29.9 mph N/A   Clear
4:53 PM 50.0 °F - 42.1 °F 74% 30.36 in 10.0 mi South 15.0 mph - N/A   Overcast
5:53 PM 48.0 °F - 41.0 °F 77% 30.35 in 10.0 mi South 16.1 mph 21.9 mph N/A   Overcast
6:53 PM 46.4 °F 40.4 °F 41.0 °F 81% 30.34 in 10.0 mi South 13.8 mph - N/A   Overcast
7:53 PM 46.9 °F - 42.1 °F 83% 30.33 in 10.0 mi South 15.0 mph - N/A   Overcast
8:53 PM 48.9 °F - 42.1 °F 77% 30.32 in 10.0 mi South 17.3 mph 24.2 mph N/A   Overcast
9:53 PM 48.9 °F - 43.0 °F 80% 30.31 in 10.0 mi South 17.3 mph 26.5 mph N/A   Overcast
10:53 PM 48.9 °F - 44.1 °F 83% 30.29 in 10.0 mi South 18.4 mph 27.6 mph N/A   Overcast
11:53 PM 50.0 °F - 44.1 °F 80% 30.27 in 10.0 mi South 13.8 mph 21.9 mph N/A   Overcast